User: anonymous   Login
Location: Anglesey
(53.1800°N, 4.2200°W)
Time: 16:03:59
(UTC+01:00)
Language:

Tiangong 1 - Orbit

View from above orbital plane
View from above orbital plane
View from above satellite
View from above satellite

Ground track
Ground track

The orbit data is extracted from the following two-line orbital elements,

1 37820U 11053A   17296.48962034  .00045878  89023-5  16284-3 0  9994
2 37820  42.7550 129.6913 0020488 277.4109 169.7844 15.88756391348308
Epoch (UTC): 23 October 2017 11:45:03
Eccentricity: 0.0020488
inclination: 42.7550°
perigee height: 292 km
apogee height: 319 km
right ascension of ascending node: 129.6913°
argument of perigee: 277.4109°
revolutions per day: 15.88756391
mean anomaly at epoch: 169.7844°
orbit number at epoch: 34830

The dashed part of the orbit path shows where the satellite is in the earth's shadow,  

DLR